[[{"header":{"parameterUnit":"m.s-1","parameterCategory":1,"la1":30.2991,"la2":30.254,"lo1":-89.0895,"lo2":-89.0444,"dy":0.0017,"dx":0.0017,"nx":28,"ny":28,"refTime":"2024-12-17T03:00:00:Z","depth":0,"parameterNumber":2,"parameterNumberName":"U-component_of_WINDS"},"data":[0,0,0,0,0,0,0,0,0,0,0,0,0,0,0,0,0,0,0,0,0,0,0,0,0,0,0,0,0,0,0,0,0,0,0,0,0,0,0,0,0,0,0,0,0,0,0,0,0,0,0,0,0,0,0,0,0,0,1.1155,1.1155,0,1.1164,1.1164,1.1164,1.1155,1.1155,1.1154,1.1154,1.1163,1.1164,1.1164,0,0,0,0,0,0,0,0,0,0,0,0,0,1.113,1.1131,1.1155,1.1155,1.1155,1.1164,1.1164,1.1164,1.1155,1.1154,1.1154,1.1154,1.1163,1.1164,1.1164,0,0,0,0,0,0,0,0,0,0,0,0,0,1.114,1.1131,1.1155,1.1151,1.1151,1.1164,1.1164,1.1164,1.1155,1.1154,1.1154,1.1153,1.1163,1.1164,1.1164,1.118,0,0,1.1167,1.1167,0,0,0,0,0,0,0,0,1.114,1.1141,1.1152,1.1152,1.1151,1.1158,1.1159,1.117,1.1155,1.1154,1.1154,1.1153,1.1162,1.1163,1.1165,1.1181,1.1181,1.1167,1.1168,1.1168,1.1168,0,0,0,0,0,0,0,1.1139,1.1141,1.1158,1.1152,1.1152,1.115,1.1151,1.1161,1.1161,1.1154,1.1153,1.1154,1.1162,1.1165,1.1166,1.1181,1.1167,1.1168,1.1168,1.1169,1.1211,1.1212,0,0,0,0,0,0,1.1139,1.114,1.1158,1.1158,1.1144,1.1151,1.1152,1.1156,1.116,1.1161,1.1155,1.1154,1.1163,1.1165,1.1166,1.1185,1.1168,1.1169,1.1169,1.1211,1.1212,1.1212,0,0,0,0,0,0,1.1138,1.114,1.1158,1.1149,1.1151,1.1152,1.1157,1.1157,1.116,1.1161,1.1161,1.1158,1.1163,1.1165,1.1177,1.1186,1.1169,1.117,1.121,1.1211,1.1212,1.1224,0,0,0,0,0,0,1.1137,1.114,1.1146,1.1149,1.1152,1.1168,1.1157,1.1157,1.1161,1.116,1.1164,1.1164,1.1163,1.1176,1.1178,1.1187,1.1171,1.1209,1.1211,1.1212,1.1223,1.1226,1.1228,0,0,0,0,0,1.1137,1.1149,1.1146,1.1148,1.1159,1.1169,1.117,1.1168,1.1162,1.1168,1.1169,1.1164,1.1185,1.1177,1.118,1.1188,1.1209,1.121,1.1212,1.1222,1.1225,1.1228,0,0,0,0,0,0,1.1146,1.1149,1.1146,1.116,1.1164,1.1167,1.1175,1.1171,1.1177,1.1176,1.1173,1.1174,1.1188,1.1189,1.1181,1.1205,1.1196,1.1198,1.1203,1.1206,1.1208,1.1207,1.1171,0,0,0,0,0,1.115,1.1157,1.116,1.1172,1.1174,1.1174,1.1178,1.1177,1.1181,1.1183,1.1184,1.1189,1.1196,1.1201,1.1208,1.1224,1.1225,1.1231,1.1233,1.1235,1.1237,1.1246,1.1249,1.1217,1.1217,1.1217,0,0,1.1157,1.116,1.1165,1.1174,1.1177,1.1185,1.1176,1.1184,1.1191,1.1184,1.1196,1.1198,1.1202,1.1217,1.1223,1.1218,1.1246,1.1237,1.1238,1.1239,1.1248,1.1251,1.1253,1.1218,1.1218,1.1217,0,0,1.1176,1.1178,1.1189,1.1192,1.1197,1.1197,1.12,1.1204,1.1205,1.1217,1.1212,1.122,1.1233,1.1236,1.124,1.1261,1.1257,1.1264,1.1275,1.1284,1.1286,1.1289,1.1296,1.1299,1.1265,1.1265,1.1265,0,1.1184,1.1196,1.1195,1.1204,1.1208,1.1203,1.1214,1.1218,1.1225,1.1228,1.1223,1.1239,1.1242,1.1258,1.1263,1.1266,1.1269,1.1263,1.1286,1.1288,1.1291,1.1298,1.1301,1.1266,1.1266,1.1266,1.1266,0,1.1207,1.1216,1.1224,1.1231,1.1236,1.1246,1.1247,1.1252,1.125,1.1251,1.1264,1.1268,1.1275,1.1279,1.1277,1.1295,1.1292,1.1287,1.1277,1.1294,1.1301,1.1304,1.1267,1.1267,1.1267,1.1266,0,0,1.1231,1.1238,1.1241,1.1244,1.125,1.1257,1.1267,1.1275,1.128,1.1285,1.1294,1.1306,1.1301,1.1306,1.1304,1.1312,1.1329,1.1306,1.1306,1.131,1.1349,1.1353,1.1356,1.1327,1.1327,1.1328,1.1349,0,1.1249,1.1267,1.1266,1.1283,1.1291,1.1287,1.1296,1.1301,1.1302,1.131,1.1312,1.132,1.1313,1.1316,1.1324,1.1325,1.1337,1.1324,1.1335,1.1335,1.1334,1.1359,1.1363,1.1383,1.1351,1.1352,1.1352,0,1.1273,1.1279,1.1297,1.1302,1.1306,1.1314,1.1322,1.1329,1.1334,1.1335,1.134,1.1338,1.1349,1.134,1.1356,1.1347,1.1352,1.1353,1.1354,1.1355,1.1344,1.1361,1.1389,1.1392,1.1356,1.1356,1.1356,0,1.1288,1.1302,1.1314,1.1317,1.1324,1.133,1.1333,1.1338,1.1343,1.135,1.1353,1.1361,1.1366,1.1372,1.1373,1.1366,1.1388,1.1379,1.1389,1.1389,1.1394,1.1393,1.1423,1.1397,1.1397,1.1397,1.1397,0,1.1309,1.132,1.1321,1.1329,1.1341,1.1341,1.1353,1.1356,1.1361,1.1369,1.1366,1.1374,1.1374,1.1382,1.1383,1.1396,1.1398,1.1399,1.1398,1.1399,1.1399,1.1401,1.14,1.1398,1.1398,1.1397,1.1397,0,1.1328,1.1329,1.1343,1.1348,1.135,1.1359,1.1363,1.1371,1.1373,1.1383,1.1386,1.1388,1.1398,1.1399,1.141,1.1411,1.1426,1.1425,1.1424,1.1424,1.1434,1.1433,1.1466,1.147,1.1442,1.1443,1.1443,0,1.1341,1.1349,1.1356,1.1361,1.1365,1.1373,1.1379,1.1379,1.1385,1.1393,1.1399,1.1409,1.1416,1.1432,1.1435,1.1444,1.1443,1.1454,1.1444,1.1444,1.1443,1.1442,1.1443,1.1455,1.1456,1.1456,1.1456,0,1.1363,1.1364,1.1372,1.138,1.1387,1.1394,1.14,1.1405,1.1406,1.1413,1.1422,1.1428,1.144,1.145,1.1459,1.1462,1.1459,1.1459,1.1462,1.1462,1.1461,1.1462,1.1429,1.1458,1.1458,1.1458,1.1458,1.1458,1.138,1.1387,1.1394,1.1403,1.1408,1.1414,1.1421,1.1424,1.1432,1.1442,1.1442,1.1453,1.1459,1.1471,1.1475,1.1484,1.1481,1.1485,1.1486,1.1486,1.1487,1.1461,1.1486,1.1486,1.1486,1.1486,1.1486,0,1.1403,1.1407,1.1415,1.1424,1.1431,1.1429,1.1436,1.1442,1.1452,1.1458,1.1466,1.1478,1.1487,1.1492,1.1501,1.1507,1.1506,1.151,1.1509,1.151,1.149,1.1487,1.1511,1.1511,1.1511,1.1511,1.1511,1.1511,1.1415,1.1428,1.143,1.1445,1.1449,1.146,1.1464,1.147,1.1475,1.1489,1.1497,1.1499,1.1505,1.1515,1.1524,1.1525,1.1528,1.1532,1.1533,1.1514,1.1511,1.1509,1.1506,1.1533,1.1533,1.1552,1.1552,1.1552]},{"header":{"parameterUnit":"m.s-1","parameterCategory":1,"la1":30.2991,"la2":30.254,"lo1":-89.0895,"lo2":-89.0444,"dy":0.0017,"dx":0.0017,"nx":28,"ny":28,"refTime":"2024-12-17T03:00:00:Z","depth":0,"parameterNumber":3,"parameterNumberName":"V-component_of_WINDS"},"data":[0,0,0,0,0,0,0,0,0,0,0,0,0,0,0,0,0,0,0,0,0,0,0,0,0,0,0,0,0,0,0,0,0,0,0,0,0,0,0,0,0,0,0,0,0,0,0,0,0,0,0,0,0,0,0,0,0,0,-1.2795,-1.2795,0,-1.2806,-1.2806,-1.2806,-1.2786,-1.2786,-1.2785,-1.2784,-1.2794,-1.2794,-1.2795,0,0,0,0,0,0,0,0,0,0,0,0,0,-1.2757,-1.2758,-1.2795,-1.2795,-1.2795,-1.2806,-1.2806,-1.2806,-1.2786,-1.2786,-1.2785,-1.2784,-1.2793,-1.2794,-1.2795,0,0,0,0,0,0,0,0,0,0,0,0,0,-1.2771,-1.2759,-1.2795,-1.2787,-1.2786,-1.2806,-1.2806,-1.2806,-1.2787,-1.2786,-1.2785,-1.2784,-1.2793,-1.2794,-1.2795,-1.2822,0,0,-1.2799,-1.28,0,0,0,0,0,0,0,0,-1.2771,-1.2773,-1.2788,-1.2788,-1.2787,-1.2794,-1.2796,-1.2811,-1.2787,-1.2787,-1.2784,-1.2783,-1.2794,-1.2795,-1.2799,-1.2823,-1.2823,-1.2799,-1.28,-1.2801,-1.2801,0,0,0,0,0,0,0,-1.277,-1.2772,-1.2799,-1.2788,-1.2788,-1.2783,-1.2783,-1.2799,-1.2796,-1.2786,-1.2785,-1.2787,-1.2794,-1.2798,-1.2799,-1.2823,-1.2799,-1.28,-1.2801,-1.2802,-1.287,-1.2871,0,0,0,0,0,0,-1.277,-1.2772,-1.2799,-1.28,-1.2776,-1.2784,-1.2785,-1.2793,-1.2795,-1.2795,-1.2788,-1.2786,-1.2797,-1.2798,-1.28,-1.2832,-1.2801,-1.2802,-1.2803,-1.2869,-1.287,-1.2872,0,0,0,0,0,0,-1.2769,-1.2773,-1.2798,-1.2785,-1.2788,-1.2786,-1.2794,-1.2793,-1.2798,-1.2796,-1.2795,-1.2793,-1.2796,-1.2798,-1.2817,-1.2832,-1.2802,-1.2803,-1.2868,-1.287,-1.2871,-1.2897,0,0,0,0,0,0,-1.2768,-1.2772,-1.2783,-1.2786,-1.2789,-1.2816,-1.2795,-1.2794,-1.28,-1.2798,-1.2801,-1.28,-1.2795,-1.2815,-1.2818,-1.2833,-1.2804,-1.2867,-1.2869,-1.2871,-1.2894,-1.2899,-1.2903,0,0,0,0,0,-1.2767,-1.2789,-1.2783,-1.2787,-1.2802,-1.2817,-1.2819,-1.2813,-1.2801,-1.2812,-1.2811,-1.28,-1.283,-1.2818,-1.2821,-1.2836,-1.2866,-1.2868,-1.287,-1.2893,-1.2898,-1.2903,0,0,0,0,0,0,-1.2787,-1.2789,-1.2783,-1.2807,-1.2812,-1.2814,-1.2827,-1.2819,-1.2827,-1.2824,-1.2816,-1.2817,-1.2838,-1.2839,-1.2825,-1.2863,-1.2846,-1.2849,-1.2862,-1.2867,-1.2871,-1.287,-1.2806,0,0,0,0,0,-1.2794,-1.2807,-1.2808,-1.2829,-1.2832,-1.2829,-1.2835,-1.283,-1.2835,-1.2837,-1.2838,-1.2842,-1.2853,-1.286,-1.2869,-1.2895,-1.2895,-1.2907,-1.2911,-1.2914,-1.2917,-1.2931,-1.2937,-1.288,-1.2879,-1.2879,0,0,-1.2809,-1.2812,-1.282,-1.2833,-1.2836,-1.2849,-1.2831,-1.2845,-1.2855,-1.2839,-1.2858,-1.2858,-1.2863,-1.2886,-1.2896,-1.2887,-1.2933,-1.2917,-1.292,-1.2921,-1.2934,-1.294,-1.2945,-1.2881,-1.2881,-1.2881,0,0,-1.2843,-1.2847,-1.2865,-1.2869,-1.2875,-1.2873,-1.2878,-1.2881,-1.2881,-1.29,-1.2889,-1.29,-1.2917,-1.2922,-1.2926,-1.2963,-1.2954,-1.2966,-1.2988,-1.3002,-1.3006,-1.301,-1.3024,-1.3029,-1.2969,-1.2969,-1.2969,0,-1.2861,-1.2881,-1.2875,-1.2891,-1.2897,-1.2884,-1.2902,-1.2907,-1.2915,-1.2919,-1.291,-1.2933,-1.2935,-1.2959,-1.2968,-1.2972,-1.2977,-1.2966,-1.3006,-1.301,-1.3014,-1.3027,-1.3032,-1.2971,-1.297,-1.297,-1.297,0,-1.2902,-1.2916,-1.293,-1.294,-1.2947,-1.2964,-1.2961,-1.2969,-1.2964,-1.2963,-1.2982,-1.2985,-1.2995,-1.3,-1.2995,-1.3024,-1.3018,-1.3008,-1.299,-1.3021,-1.3033,-1.3038,-1.2973,-1.2972,-1.2972,-1.2971,0,0,-1.2948,-1.2956,-1.2961,-1.2966,-1.2972,-1.2982,-1.2999,-1.3009,-1.3017,-1.3023,-1.3037,-1.3053,-1.3044,-1.3049,-1.3044,-1.3056,-1.3086,-1.3044,-1.3044,-1.3052,-1.3118,-1.3126,-1.3132,-1.308,-1.3081,-1.3081,-1.3118,0,-1.2983,-1.3012,-1.3008,-1.3035,-1.3048,-1.3037,-1.3052,-1.3057,-1.3057,-1.3068,-1.3067,-1.3079,-1.3065,-1.3068,-1.308,-1.308,-1.3099,-1.3077,-1.3092,-1.3093,-1.3092,-1.3138,-1.3147,-1.3181,-1.3122,-1.3123,-1.3124,0,-1.3026,-1.3035,-1.3065,-1.307,-1.3075,-1.3089,-1.3099,-1.3109,-1.3115,-1.3114,-1.312,-1.3114,-1.313,-1.3113,-1.3135,-1.312,-1.3126,-1.3127,-1.3128,-1.313,-1.311,-1.3141,-1.3192,-1.3197,-1.3131,-1.313,-1.313,0,-1.3057,-1.3077,-1.3098,-1.3102,-1.3108,-1.3118,-1.3121,-1.3126,-1.3133,-1.3142,-1.3146,-1.3156,-1.3162,-1.317,-1.3166,-1.3154,-1.3189,-1.3171,-1.3189,-1.3189,-1.3197,-1.3197,-1.325,-1.3201,-1.3201,-1.32,-1.32,0,-1.3096,-1.3114,-1.3112,-1.3124,-1.3145,-1.314,-1.3161,-1.3162,-1.3167,-1.318,-1.317,-1.3182,-1.3176,-1.3188,-1.3185,-1.3204,-1.3207,-1.3206,-1.3205,-1.3207,-1.3207,-1.3211,-1.3209,-1.3202,-1.3201,-1.3201,-1.3201,0,-1.3134,-1.3133,-1.3155,-1.316,-1.3161,-1.3176,-1.318,-1.3192,-1.3192,-1.3208,-1.3211,-1.3211,-1.3224,-1.3221,-1.3235,-1.3233,-1.3257,-1.3253,-1.3256,-1.3255,-1.3273,-1.3271,-1.333,-1.3338,-1.3284,-1.3284,-1.3285,0,-1.3158,-1.3173,-1.318,-1.3188,-1.3192,-1.3205,-1.3213,-1.3209,-1.3217,-1.3226,-1.3237,-1.3249,-1.3259,-1.328,-1.3281,-1.3292,-1.3288,-1.3308,-1.3289,-1.3291,-1.3289,-1.3288,-1.329,-1.3312,-1.3312,-1.3313,-1.3313,0,-1.3202,-1.3202,-1.3213,-1.3225,-1.3235,-1.3244,-1.3252,-1.3259,-1.3256,-1.3266,-1.328,-1.3287,-1.3303,-1.3315,-1.3326,-1.3328,-1.332,-1.3319,-1.3324,-1.3326,-1.3327,-1.3327,-1.3266,-1.3318,-1.3317,-1.3317,-1.3317,-1.3316,-1.3235,-1.3247,-1.3255,-1.3268,-1.3274,-1.3282,-1.3294,-1.3296,-1.3308,-1.332,-1.3317,-1.3333,-1.3339,-1.3352,-1.3357,-1.3369,-1.3361,-1.3368,-1.337,-1.3371,-1.3374,-1.3325,-1.3371,-1.337,-1.337,-1.337,-1.337,0,-1.3278,-1.3283,-1.3296,-1.3308,-1.3319,-1.3312,-1.332,-1.333,-1.3344,-1.3351,-1.3362,-1.3378,-1.3391,-1.3393,-1.3405,-1.3414,-1.3411,-1.3417,-1.3417,-1.3418,-1.338,-1.3375,-1.342,-1.342,-1.342,-1.342,-1.342,-1.342,-1.3302,-1.3324,-1.3324,-1.3348,-1.3353,-1.3369,-1.3375,-1.3382,-1.3388,-1.3407,-1.3418,-1.342,-1.3425,-1.3437,-1.3448,-1.3449,-1.3453,-1.3462,-1.346,-1.3425,-1.342,-1.3415,-1.3411,-1.3463,-1.3463,-1.3497,-1.3498,-1.3498]}]]